Погода в Слободках

Россия / Ивановская область     56°55′30″N   42°20′10″E
темп.,
°C
ветер,
м/с
пор.,
м/с
влажн.,
%
обл.,
%
осадки,
мм/ч
давл.,
гПа
погр.,
м
17 августа, ср
ср1700:00+17вюв35685 0.0 102478
03:00+16в337612 0.0 102444
06:00+16в367964 0.0 1024144
09:00+23вюв455699 0.0 1023560
12:00+26вюв454397 0.0 10231832
15:00+27в55395 0.0 10222199
18:00+26в464616 0.0 1021492
21:00+20в346489 0.0 102244
18 августа, чт
чт1800:00+20вюв236446 0.0 102264
03:00+17вюв34762 0.0 102257
06:00+17в37780 0.0 1023153
09:00+23вюв57520 0.0 1023636
12:00+26в67400 0.0 10231506
15:00+27вюв67340 0.0 10221847
18:00+25вюв47410 0.0 1023638
21:00+19в346491 0.0 102446
19 августа, пт
пт1900:00+18в3471100 0.0 102558
03:00+16в388296 0.0 1026147
06:00+16в498234 0.0 1027241
09:00+22вюв575575 0.0 1028738
12:00+25вюв6840100 0.0 10281497
15:00+25в683465 0.0 10281710
18:00+23вюв5834100 0.0 1028794
21:00+16вюв365153 0.0 102985
20 августа, сб
сб2000:00+14в496210 0.0 1030144
03:00+13в411685 0.0 1030190
06:00+13в310665 0.0 1031210
09:00+21юв57400 0.0 1030465
12:00+26вюв56300 0.0 10301349
15:00+27вюв56260 0.0 10291895
18:00+24вюв47350 0.0 1028397
21:00+17вюв46530 0.0 102980
21 августа, вс
вс2100:00+15юв36590 0.0 102979
03:00+13юв34652 0.0 102943
06:00+13вюв34654 0.0 102966
09:00+21юв454098 0.0 1029468
12:00+25ююв442888 0.0 10281388
15:00+27юв4424100 0.0 10271766
18:00+23вюв3541100 0.0 102797
21:00+18юв335688 0.0 102722